Weather History for Eastsound, WA

Change the Weather History Date:

Sunday, January 22, 2012

  Actual Average (KBLI) Record (KBLI)
Temperature  
Mean Temperature 42 °F 40 °F  
Max Temperature 44 °F 46 °F 65 °F (1981)
Min Temperature 39 °F 33 °F 11 °F (1969)
Degree Days  
Heating Degree Days 24 25  
Month to date heating degree days 573  
Cooling Degree Days 0 0  
Month to date cooling degree days 0  
Year to date cooling degree days 0  
Moisture  
Dew Point 35 °F    
Average Humidity 75    
Maximum Humidity 93    
Minimum Humidity 53    
Precipitation  
Precipitation 0.00 in 0.14 in 1.06 in (1953)
Month to date precipitation 3.39  
Year to date precipitation 3.39  
Sea Level Pressure  
Sea Level Pressure 29.55 in    
Wind  
Wind Speed 11 mph (South)    
Max Wind Speed 22 mph    
Max Gust Speed 37 mph    
Visibility 10 miles    
Events Rain    
T = Trace of Precipitation, MM = Missing Value Source: NWS Daily Summary

Daily Weather History Graph

Daily Weather History Graph

Search for Another Location

Airport:

Trip Planner

Search our weather history database for the weather conditions in past years. The results will help you decide how hot, cold, wet, or windy it might be!

Date:

Astronomy

Jan. 22, 2012 Rise Set
Actual Time 7:53 AM PST 4:53 PM PST
Civil Twilight 7:18 AM PST 5:28 PM PST
Nautical Twilight 6:39 AM PST 6:06 PM PST
Astronomical Twilight 6:02 AM PST 6:44 PM PST
Moon 7:13 AM PST (1/22) 4:43 PM PST (1/22)
Length of Visible Light 10h 09m
Length of Day
8h 59m
Waning Crescent, 0% of the Moon is Illuminated
Jan 22
Waning Crescent
Jan 22
New
Jan 30
First Quarter
Feb 7
Full
Feb 14
Last Quarter

Hourly Weather History & Observations

Time (PST) Temp. Windchill Dew Point Humidity Pressure Visibility Wind Dir Wind Speed Gust Speed Precip Events Conditions
12:15 AM 39.2 °F 32.0 °F 33.8 °F 81% 29.83 in 10.0 mi South 11.5 mph 18.4 mph N/A   Clear
12:35 AM 39.2 °F 31.6 °F 33.8 °F 81% 29.82 in 10.0 mi SSW 12.7 mph - N/A   Clear
12:55 AM 39.2 °F 33.0 °F 33.8 °F 81% 29.82 in 10.0 mi South 9.2 mph 17.3 mph N/A   Mostly Cloudy
1:15 AM 39.2 °F 33.0 °F 35.6 °F 87% 29.82 in 10.0 mi South 9.2 mph 17.3 mph N/A   Overcast
1:35 AM 39.2 °F 33.0 °F 35.6 °F 87% 29.81 in 10.0 mi South 9.2 mph - N/A   Scattered Clouds
1:55 AM 39.2 °F 33.0 °F 35.6 °F 87% 29.79 in 10.0 mi South 9.2 mph - N/A   Partly Cloudy
2:15 AM 39.2 °F 33.0 °F 35.6 °F 87% 29.78 in 10.0 mi SSE 9.2 mph - N/A   Clear
2:35 AM 39.2 °F 33.6 °F 33.8 °F 81% 29.76 in 10.0 mi SE 8.1 mph - N/A   Clear
3:15 AM 39.2 °F 31.6 °F 33.8 °F 81% 29.75 in 10.0 mi South 12.7 mph 21.9 mph N/A   Clear
3:35 AM 39.2 °F 31.6 °F 33.8 °F 81% 29.75 in 10.0 mi South 12.7 mph 20.7 mph N/A   Clear
4:15 AM 41.0 °F 32.8 °F 33.8 °F 76% 29.72 in 10.0 mi South 16.1 mph 26.5 mph N/A   Partly Cloudy
4:55 AM 41.0 °F 34.7 °F 32.0 °F 70% 29.69 in 10.0 mi South 10.4 mph 24.2 mph N/A   Partly Cloudy
5:15 AM 41.0 °F 35.2 °F 32.0 °F 70% 29.69 in 10.0 mi South 9.2 mph 25.3 mph N/A   Scattered Clouds
5:35 AM 41.0 °F 35.2 °F 32.0 °F 70% 29.68 in 10.0 mi SSE 9.2 mph 24.2 mph N/A   Mostly Cloudy
5:55 AM 41.0 °F 34.7 °F 32.0 °F 70% 29.67 in 10.0 mi SSE 10.4 mph 21.9 mph N/A   Partly Cloudy
6:15 AM 42.8 °F 37.0 °F 32.0 °F 66% 29.66 in 10.0 mi SSE 10.4 mph 23.0 mph N/A   Clear
6:35 AM 42.8 °F 36.2 °F 32.0 °F 66% 29.65 in 10.0 mi SE 12.7 mph 18.4 mph N/A   Clear
6:55 AM 42.8 °F 37.5 °F 32.0 °F 66% 29.63 in 10.0 mi SSE 9.2 mph 18.4 mph N/A   Scattered Clouds
7:15 AM 41.0 °F 35.8 °F 32.0 °F 70% 29.61 in 10.0 mi SSE 8.1 mph 18.4 mph N/A Rain Light Rain
7:35 AM 41.0 °F 33.9 °F 32.0 °F 70% 29.60 in 10.0 mi SSE 12.7 mph 24.2 mph N/A   Scattered Clouds
8:15 AM 42.8 °F 35.1 °F 32.0 °F 66% 29.56 in 10.0 mi SE 16.1 mph 27.6 mph N/A   Clear
8:35 AM 42.8 °F 36.2 °F 32.0 °F 66% 29.55 in 10.0 mi SSE 12.7 mph 29.9 mph N/A   Clear
8:55 AM 42.8 °F 36.6 °F 30.2 °F 61% 29.54 in 10.0 mi SSE 11.5 mph 28.8 mph N/A   Clear
9:15 AM 44.6 °F 41.4 °F 30.2 °F 57% 29.54 in 10.0 mi SE 5.8 mph 27.6 mph N/A   Clear
9:35 AM 44.6 °F 39.7 °F 30.2 °F 57% 29.54 in 10.0 mi ESE 9.2 mph 25.3 mph N/A   Clear
9:55 AM 44.6 °F 39.7 °F 28.4 °F 53% 29.52 in 10.0 mi SE 9.2 mph 25.3 mph N/A   Clear
10:35 AM 44.6 °F 41.4 °F 32.0 °F 61% 29.49 in 10.0 mi SSE 5.8 mph - N/A   Partly Cloudy
10:55 AM 41.0 °F 34.7 °F 32.0 °F 70% 29.47 in 7.0 mi SE 10.4 mph 24.2 mph N/A Rain Light Rain
11:15 AM 41.0 °F 35.8 °F 32.0 °F 70% 29.44 in 10.0 mi SE 8.1 mph - N/A   Partly Cloudy
11:35 AM 42.8 °F 40.1 °F 32.0 °F 66% 29.43 in 10.0 mi SSE 4.6 mph - N/A   Clear
11:55 AM 42.8 °F 37.0 °F 32.0 °F 66% 29.41 in 10.0 mi SE 10.4 mph 25.3 mph N/A   Scattered Clouds
12:15 PM 42.8 °F 37.5 °F 32.0 °F 66% 29.40 in 10.0 mi SE 9.2 mph - N/A Rain Light Rain
12:35 PM 42.8 °F 35.8 °F 33.8 °F 70% 29.37 in 10.0 mi ESE 13.8 mph 27.6 mph N/A   Mostly Cloudy
12:55 PM 44.6 °F 37.8 °F 35.6 °F 71% 29.35 in 10.0 mi SSE 15.0 mph 27.6 mph N/A   Mostly Cloudy
1:15 PM 44.6 °F 38.8 °F 35.6 °F 71% 29.33 in 10.0 mi SSE 11.5 mph 24.2 mph N/A   Scattered Clouds
1:35 PM 44.6 °F 36.1 °F 35.6 °F 71% 29.31 in 10.0 mi SE 21.9 mph 36.8 mph N/A   Partly Cloudy
1:55 PM 44.6 °F 37.2 °F 35.6 °F 71% 29.30 in 10.0 mi SSE 17.3 mph 32.2 mph N/A   Clear
2:15 PM 44.6 °F 38.8 °F 35.6 °F 71% 29.29 in 10.0 mi South 11.5 mph 27.6 mph N/A   Partly Cloudy
2:35 PM 42.8 °F 34.8 °F 37.4 °F 81% 29.30 in 9.0 mi South 17.3 mph 31.1 mph N/A   Scattered Clouds
2:55 PM 42.8 °F 35.4 °F 37.4 °F 81% 29.32 in 10.0 mi South 15.0 mph 29.9 mph N/A   Mostly Cloudy
3:15 PM 41.0 °F 32.8 °F 35.6 °F 81% 29.33 in 10.0 mi SSE 16.1 mph 28.8 mph N/A   Scattered Clouds
3:35 PM 41.0 °F 33.5 °F 35.6 °F 81% 29.35 in 10.0 mi South 13.8 mph 29.9 mph N/A   Partly Cloudy
3:55 PM 42.8 °F 36.2 °F 37.4 °F 81% 29.38 in 10.0 mi South 12.7 mph 29.9 mph N/A   Partly Cloudy
4:15 PM 44.6 °F 38.1 °F 37.4 °F 76% 29.41 in 10.0 mi South 13.8 mph 24.2 mph N/A   Mostly Cloudy
4:35 PM 44.6 °F 39.7 °F 37.4 °F 76% 29.42 in 10.0 mi South 9.2 mph 24.2 mph N/A   Mostly Cloudy
4:55 PM 42.8 °F 35.1 °F 39.2 °F 87% 29.44 in 8.0 mi South 16.1 mph 27.6 mph N/A Rain Light Rain
5:15 PM 42.8 °F 36.2 °F 39.2 °F 87% 29.46 in 10.0 mi South 12.7 mph 28.8 mph N/A   Mostly Cloudy
5:35 PM 44.6 °F 38.8 °F 39.2 °F 81% 29.47 in 10.0 mi South 11.5 mph 21.9 mph N/A   Mostly Cloudy
5:55 PM 42.8 °F 35.8 °F 39.2 °F 87% 29.48 in 6.0 mi South 13.8 mph 20.7 mph N/A Rain Light Rain
6:15 PM 42.8 °F 36.2 °F 39.2 °F 87% 29.51 in 7.0 mi South 12.7 mph 21.9 mph N/A Rain Light Rain
6:35 PM 41.0 °F 34.3 °F 39.2 °F 93% 29.52 in 10.0 mi SSW 11.5 mph - N/A Rain Light Rain
6:55 PM 42.8 °F 37.0 °F 39.2 °F 87% 29.54 in 9.0 mi SSW 10.4 mph - N/A Rain Light Rain
7:15 PM 42.8 °F 40.1 °F 39.2 °F 87% 29.56 in 9.0 mi WSW 4.6 mph - N/A Rain Light Rain
7:35 PM 42.8 °F 36.6 °F 37.4 °F 81% 29.56 in 10.0 mi South 11.5 mph 17.3 mph N/A   Mostly Cloudy
7:55 PM 41.0 °F 32.8 °F 37.4 °F 87% 29.58 in 5.0 mi SSW 16.1 mph 23.0 mph N/A   Scattered Clouds
8:15 PM 41.0 °F 34.3 °F 37.4 °F 87% 29.58 in 10.0 mi South 11.5 mph 20.7 mph N/A   Scattered Clouds
8:35 PM 41.0 °F 36.4 °F 35.6 °F 81% 29.61 in 10.0 mi South 6.9 mph - N/A   Clear
8:55 PM 41.0 °F 37.1 °F 35.6 °F 81% 29.63 in 10.0 mi SW 5.8 mph - N/A   Clear
9:15 PM 42.8 °F 37.5 °F 33.8 °F 70% 29.65 in 10.0 mi SSW 9.2 mph 19.6 mph N/A   Clear
9:35 PM 41.0 °F 34.3 °F 35.6 °F 81% 29.67 in 10.0 mi SSW 11.5 mph - N/A   Partly Cloudy
9:55 PM 42.8 °F 35.4 °F 32.0 °F 66% 29.66 in 10.0 mi SSW 15.0 mph - N/A   Partly Cloudy
10:15 PM 41.0 °F 33.5 °F 32.0 °F 70% 29.67 in 10.0 mi SSW 13.8 mph 19.6 mph N/A   Clear
10:35 PM 41.0 °F 36.4 °F 33.8 °F 76% 29.69 in 3.0 mi SSW 6.9 mph 23.0 mph 0.02 in Rain Light Rain
10:55 PM 41.0 °F 35.8 °F 32.0 °F 70% 29.70 in 10.0 mi SSW 8.1 mph - 0.02 in   Partly Cloudy
11:15 PM 41.0 °F 32.2 °F 32.0 °F 70% 29.73 in 8.0 mi SW 18.4 mph 25.3 mph N/A Rain Light Rain
11:35 PM 41.0 °F 34.7 °F 35.6 °F 81% 29.75 in 2.0 mi SW 10.4 mph 16.1 mph 0.01 in   Overcast
11:55 PM 39.2 °F 32.0 °F 37.4 °F 93% 29.75 in 10.0 mi SSW 11.5 mph - 0.01 in   Scattered Clouds